QPF
0.00 0.02 0.05 0.09 0.04 0.01 0.01 0.01 0.01 0.01 0.01 0.02 0.01 0.01 0.01 0.01 0.01 0.00 0.00 0.00 0.00 0.00 0.00 0.00 0.00 0.00 0.00 0.00 0.00 0.00 0.00 0.00 0.00 0.00 0.00 0.00 0.00 0.00 0.00 0.00 0.00 0.00 0.00
0.01 0.03 0.07 0.11 0.08 0.03 0.01 0.01 0.02 0.02 0.02 0.02 0.02 0.01 0.01 0.00 0.00 0.00 0.00 0.00 0.00 0.00 0.00 0.00 0.00 0.00 0.00 0.00 0.00 0.00 0.00 0.00 0.00 0.00 0.00 0.00 0.00 0.00 0.00 0.00 0.00 0.00 0.00
0.00 0.01 0.03 0.06 0.08 0.04 0.02 0.02 0.04 0.04 0.04 0.02 0.01 0.01 0.01 0.01 0.01 0.01 0.01 0.01 0.00 0.00 0.00 0.00 0.00 0.00 0.00 0.00 0.00 0.00 0.00 0.00 0.00 0.00 0.00 0.00 0.00 0.00 0.00 0.00 0.00 0.00 0.00
0.00 0.00 0.01 0.03 0.05 0.05 0.04 0.04 0.06 0.06 0.04 0.03 0.02 0.03 0.03 0.03 0.03 0.02 0.02 0.01 0.00 0.00 0.00 0.00 0.00 0.00 0.00 0.00 0.00 0.00 0.00 0.00 0.00 0.00 0.00 0.00 0.00 0.00 0.00 0.00 0.00 0.00 0.00
0.00 0.01 0.01 0.02 0.04 0.04 0.06 0.07 0.08 0.08 0.07 0.06 0.06 0.05 0.06 0.06 0.05 0.04 0.02 0.01 0.00 0.00 0.00 0.00 0.00 0.00 0.00 0.00 0.00 0.00 0.00 0.00 0.00 0.00 0.00 0.00 0.00 0.00 0.00 0.00 0.00 0.00 0.00
0.00 0.01 0.03 0.04 0.05 0.06 0.08 0.11 0.14 0.16 0.12 0.10 0.10 0.09 0.08 0.07 0.05 0.03 0.01 0.00 0.00 0.00 0.00 0.00 0.00 0.00 0.00 0.00 0.00 0.00 0.00 0.00 0.00 0.00 0.00 0.00 0.00 0.00 0.00 0.00 0.00 0.00 0.00
0.01 0.02 0.04 0.06 0.07 0.06 0.10 0.14 0.14 0.13 0.11 0.10 0.09 0.07 0.06 0.04 0.02 0.01 0.01 0.00 0.00 0.00 0.00 0.00 0.00 0.00 0.00 0.00 0.00 0.00 0.00 0.00 0.00 0.00 0.00 0.00 0.00 0.00 0.00 0.00 0.00 0.00 0.00
0.01 0.03 0.04 0.04 0.03 0.03 0.07 0.09 0.08 0.07 0.06 0.06 0.05 0.04 0.03 0.02 0.02 0.01 0.00 0.00 0.00 0.00 0.00 0.00 0.00 0.00 0.00 0.00 0.00 0.00 0.00 0.00 0.00 0.00 0.00 0.00 0.00 0.00 0.00 0.00 0.00 0.00 0.00
0.01 0.02 0.02 0.02 0.01 0.01 0.02 0.04 0.04 0.05 0.05 0.04 0.04 0.03 0.02 0.01 0.01 0.00 0.00 0.00 0.00 0.00 0.00 0.00 0.00 0.00 0.00 0.00 0.00 0.00 0.00 0.00 0.00 0.00 0.00 0.00 0.00 0.00 0.00 0.01 0.01 0.02 0.02
0.01 0.01 0.02 0.02 0.01 0.01 0.02 0.03 0.04 0.04 0.04 0.04 0.03 0.03 0.02 0.01 0.00 0.00 0.00 0.00 0.00 0.00 0.00 0.00 0.00 0.00 0.00 0.00 0.00 0.00 0.00 0.00 0.00 0.00 0.01 0.01 0.01 0.02 0.02 0.02 0.03 0.03 0.03
0.01 0.01 0.01 0.01 0.00 0.01 0.03 0.04 0.04 0.04 0.04 0.04 0.03 0.02 0.01 0.00 0.00 0.00 0.00 0.00 0.00 0.00 0.00 0.00 0.00 0.00 0.00 0.00 0.00 0.00 0.00 0.01 0.01 0.01 0.02 0.03 0.03 0.04 0.04 0.04 0.04 0.04 0.04
0.02 0.02 0.01 0.00 0.01 0.02 0.03 0.05 0.05 0.04 0.04 0.03 0.02 0.01 0.01 0.00 0.00 0.00 0.00 0.00 0.00 0.00 0.00 0.00 0.00 0.00 0.00 0.00 0.00 0.01 0.01 0.02 0.03 0.03 0.03 0.03 0.03 0.04 0.04 0.04 0.03 0.02 0.02
0.03 0.01 0.00 0.01 0.01 0.03 0.05 0.06 0.06 0.05 0.04 0.02 0.01 0.01 0.01 0.00 0.00 0.00 0.00 0.00 0.00 0.00 0.00 0.00 0.00 0.00 0.01 0.01 0.01 0.01 0.02 0.02 0.02 0.02 0.02 0.02 0.02 0.03 0.02 0.02 0.01 0.01 0.01
0.03 0.01 0.01 0.02 0.03 0.05 0.07 0.06 0.06 0.04 0.02 0.02 0.02 0.01 0.01 0.01 0.01 0.00 0.00 0.00 0.00 0.00 0.01 0.01 0.01 0.01 0.01 0.01 0.00 0.00 0.01 0.01 0.01 0.01 0.01 0.01 0.01 0.02 0.01 0.01 0.01 0.01 0.02
0.03 0.01 0.02 0.03 0.04 0.05 0.07 0.07 0.06 0.05 0.04 0.03 0.03 0.02 0.01 0.01 0.01 0.00 0.00 0.01 0.01 0.01 0.01 0.01 0.01 0.00 0.00 0.00 0.00 0.00 0.00 0.00 0.00 0.00 0.01 0.01 0.01 0.01 0.01 0.01 0.01 0.01 0.03
0.03 0.02 0.02 0.03 0.06 0.09 0.11 0.12 0.12 0.10 0.07 0.04 0.03 0.02 0.01 0.01 0.01 0.01 0.01 0.01 0.01 0.01 0.00 0.00 0.00 0.00 0.00 0.00 0.00 0.00 0.00 0.00 0.01 0.01 0.01 0.01 0.01 0.01 0.01 0.01 0.02 0.03 0.04
0.03 0.02 0.02 0.04 0.09 0.13 0.17 0.18 0.14 0.09 0.05 0.03 0.02 0.01 0.01 0.01 0.01 0.01 0.01 0.00 0.00 0.00 0.00 0.00 0.00 0.00 0.00 0.00 0.00 0.00 0.00 0.01 0.01 0.02 0.02 0.02 0.01 0.02 0.02 0.02 0.03 0.03 0.03
0.02 0.02 0.03 0.07 0.13 0.18 0.18 0.14 0.08 0.05 0.03 0.02 0.02 0.01 0.01 0.01 0.01 0.00 0.00 0.00 0.00 0.00 0.00 0.00 0.00 0.01 0.01 0.00 0.00 0.00 0.00 0.01 0.01 0.02 0.03 0.03 0.03 0.02 0.02 0.01 0.01 0.01 0.01
0.04 0.06 0.08 0.12 0.17 0.19 0.15 0.10 0.06 0.03 0.02 0.02 0.01 0.01 0.00 0.00 0.00 0.00 0.00 0.00 0.00 0.00 0.00 0.00 0.00 0.01 0.01 0.00 0.00 0.00 0.00 0.00 0.01 0.01 0.01 0.02 0.02 0.02 0.02 0.02 0.01 0.01 0.01
0.05 0.08 0.10 0.12 0.14 0.12 0.09 0.06 0.04 0.02 0.02 0.01 0.01 0.00 0.00 0.00 0.00 0.00 0.00 0.00 0.00 0.00 0.00 0.00 0.01 0.01 0.02 0.01 0.00 0.00 0.00 0.00 0.00 0.00 0.01 0.01 0.03 0.03 0.02 0.01 0.02 0.02 0.02
0.04 0.06 0.08 0.09 0.08 0.06 0.04 0.03 0.02 0.02 0.01 0.00 0.00 0.00 0.00 0.00 0.00 0.00 0.00 0.00 0.00 0.00 0.00 0.01 0.01 0.02 0.02 0.01 0.00 0.00 0.00 0.00 0.00 0.00 0.01 0.02 0.03 0.02 0.01 0.01 0.01 0.02 0.02
0.05 0.06 0.06 0.05 0.04 0.03 0.02 0.02 0.01 0.01 0.00 0.00 0.00 0.00 0.00 0.00 0.00 0.00 0.00 0.00 0.00 0.00 0.00 0.01 0.01 0.01 0.01 0.01 0.00 0.00 0.00 0.00 0.00 0.01 0.02 0.03 0.04 0.03 0.03 0.03 0.03 0.04 0.06
0.04 0.03 0.03 0.02 0.02 0.02 0.02 0.01 0.00 0.00 0.00 0.00 0.00 0.00 0.00 0.00 0.00 0.00 0.00 0.00 0.00 0.00 0.00 0.01 0.01 0.01 0.01 0.01 0.00 0.00 0.00 0.00 0.01 0.02 0.05 0.06 0.06 0.07 0.07 0.07 0.08 0.09 0.08
0.02 0.01 0.01 0.01 0.01 0.01 0.01 0.00 0.00 0.00 0.00 0.00 0.00 0.00 0.00 0.00 0.00 0.00 0.00 0.00 0.00 0.01 0.01 0.01 0.01 0.01 0.01 0.01 0.01 0.00 0.00 0.00 0.01 0.02 0.07 0.12 0.13 0.13 0.13 0.13 0.11 0.08 0.06
0.01 0.01 0.01 0.01 0.01 0.00 0.00 0.00 0.00 0.00 0.00 0.00 0.00 0.00 0.00 0.00 0.00 0.00 0.00 0.00 0.00 0.00 0.00 0.01 0.01 0.01 0.01 0.01 0.01 0.01 0.00 0.00 0.01 0.03 0.05 0.07 0.09 0.10 0.10 0.09 0.07 0.05 0.04
0.01 0.01 0.01 0.01 0.00 0.00 0.00 0.00 0.00 0.00 0.00 0.00 0.00 0.00 0.00 0.00 0.00 0.01 0.01 0.00 0.00 0.00 0.00 0.00 0.00 0.01 0.01 0.01 0.00 0.00 0.01 0.01 0.02 0.03 0.05 0.06 0.07 0.07 0.07 0.06 0.06 0.05 0.04
MSLP
1004.41 1004.99 1005.66 1006.38 1007.11 1007.84 1008.55 1009.25 1009.95 1010.65 1011.36 1012.06 1012.74 1013.39 1014.00 1014.55 1015.03 1015.45 1015.81 1016.13 1016.41 1016.67 1016.91 1017.14 1017.36 1017.56 1017.75 1017.92 1018.06 1018.18 1018.25 1018.28 1018.24 1018.15 1017.98 1017.75 1017.47 1017.15 1016.82 1016.52 1016.26 1016.06 1015.94
1004.17 1004.83 1005.57 1006.34 1007.10 1007.84 1008.56 1009.27 1009.98 1010.72 1011.47 1012.23 1012.97 1013.67 1014.31 1014.88 1015.35 1015.75 1016.09 1016.38 1016.65 1016.91 1017.17 1017.42 1017.67 1017.90 1018.10 1018.28 1018.41 1018.50 1018.54 1018.53 1018.48 1018.36 1018.20 1017.98 1017.72 1017.42 1017.11 1016.81 1016.54 1016.33 1016.17
1003.88 1004.67 1005.53 1006.40 1007.23 1008.01 1008.74 1009.45 1010.16 1010.90 1011.66 1012.43 1013.19 1013.91 1014.57 1015.13 1015.60 1015.98 1016.30 1016.59 1016.85 1017.12 1017.40 1017.68 1017.95 1018.20 1018.41 1018.58 1018.70 1018.77 1018.78 1018.75 1018.68 1018.57 1018.43 1018.24 1018.01 1017.76 1017.49 1017.22 1016.97 1016.74 1016.54
1003.59 1004.55 1005.58 1006.59 1007.53 1008.36 1009.12 1009.83 1010.51 1011.21 1011.94 1012.69 1013.43 1014.13 1014.77 1015.32 1015.78 1016.16 1016.48 1016.76 1017.03 1017.31 1017.60 1017.90 1018.19 1018.45 1018.67 1018.84 1018.94 1018.99 1018.99 1018.94 1018.87 1018.78 1018.66 1018.52 1018.35 1018.15 1017.93 1017.70 1017.45 1017.22 1016.99
1003.37 1004.53 1005.75 1006.92 1007.98 1008.90 1009.69 1010.38 1011.03 1011.67 1012.33 1013.01 1013.69 1014.35 1014.96 1015.49 1015.94 1016.31 1016.63 1016.91 1017.19 1017.48 1017.78 1018.09 1018.38 1018.65 1018.86 1019.01 1019.10 1019.13 1019.12 1019.08 1019.02 1018.95 1018.87 1018.77 1018.66 1018.52 1018.34 1018.14 1017.91 1017.66 1017.39
1003.30 1004.65 1006.06 1007.40 1008.59 1009.58 1010.40 1011.08 1011.67 1012.24 1012.81 1013.40 1014.00 1014.60 1015.16 1015.66 1016.09 1016.45 1016.77 1017.06 1017.34 1017.63 1017.92 1018.22 1018.50 1018.75 1018.95 1019.08 1019.15 1019.17 1019.15 1019.11 1019.07 1019.02 1018.97 1018.92 1018.86 1018.76 1018.63 1018.45 1018.22 1017.95 1017.64
1003.42 1004.94 1006.52 1008.00 1009.30 1010.37 1011.21 1011.87 1012.41 1012.89 1013.37 1013.86 1014.37 1014.89 1015.39 1015.85 1016.26 1016.61 1016.92 1017.20 1017.47 1017.74 1018.01 1018.28 1018.53 1018.75 1018.91 1019.02 1019.07 1019.07 1019.05 1019.01 1018.97 1018.94 1018.92 1018.91 1018.87 1018.81 1018.70 1018.53 1018.31 1018.02 1017.68
1003.76 1005.41 1007.10 1008.69 1010.07 1011.19 1012.05 1012.69 1013.18 1013.59 1013.97 1014.37 1014.80 1015.23 1015.67 1016.08 1016.46 1016.78 1017.07 1017.33 1017.57 1017.80 1018.04 1018.26 1018.47 1018.64 1018.76 1018.83 1018.85 1018.84 1018.80 1018.76 1018.72 1018.70 1018.70 1018.69 1018.68 1018.63 1018.53 1018.37 1018.15 1017.86 1017.51
1004.31 1006.02 1007.77 1009.42 1010.84 1011.98 1012.85 1013.47 1013.92 1014.27 1014.59 1014.91 1015.25 1015.62 1015.99 1016.35 1016.68 1016.97 1017.22 1017.44 1017.64 1017.83 1018.01 1018.18 1018.33 1018.44 1018.52 1018.55 1018.54 1018.50 1018.45 1018.39 1018.35 1018.33 1018.32 1018.31 1018.29 1018.25 1018.16 1018.01 1017.79 1017.51 1017.16
1005.04 1006.75 1008.50 1010.14 1011.56 1012.70 1013.56 1014.17 1014.60 1014.91 1015.18 1015.45 1015.73 1016.03 1016.34 1016.64 1016.92 1017.16 1017.36 1017.54 1017.69 1017.82 1017.95 1018.06 1018.16 1018.22 1018.26 1018.25 1018.22 1018.16 1018.08 1018.01 1017.94 1017.90 1017.87 1017.84 1017.81 1017.76 1017.67 1017.53 1017.33 1017.07 1016.75
1005.92 1007.57 1009.25 1010.83 1012.21 1013.32 1014.16 1014.77 1015.19 1015.50 1015.74 1015.97 1016.21 1016.46 1016.71 1016.95 1017.17 1017.36 1017.51 1017.64 1017.74 1017.83 1017.91 1017.98 1018.04 1018.07 1018.08 1018.05 1017.99 1017.91 1017.81 1017.70 1017.61 1017.52 1017.45 1017.39 1017.33 1017.26 1017.16 1017.03 1016.85 1016.63 1016.34
1006.92 1008.47 1010.04 1011.51 1012.81 1013.87 1014.69 1015.29 1015.72 1016.02 1016.26 1016.48 1016.68 1016.89 1017.09 1017.28 1017.44 1017.57 1017.67 1017.75 1017.82 1017.88 1017.94 1017.99 1018.03 1018.05 1018.05 1018.01 1017.94 1017.84 1017.71 1017.57 1017.43 1017.29 1017.17 1017.05 1016.95 1016.84 1016.73 1016.60 1016.44 1016.25 1016.01
1008.04 1009.44 1010.87 1012.21 1013.40 1014.39 1015.17 1015.76 1016.20 1016.51 1016.76 1016.96 1017.15 1017.31 1017.47 1017.60 1017.71 1017.79 1017.85 1017.90 1017.95 1018.00 1018.06 1018.12 1018.17 1018.21 1018.21 1018.18 1018.11 1017.99 1017.84 1017.65 1017.45 1017.25 1017.05 1016.87 1016.70 1016.55 1016.41 1016.27 1016.12 1015.95 1015.74
1009.26 1010.51 1011.77 1012.96 1014.03 1014.93 1015.66 1016.23 1016.66 1016.99 1017.24 1017.43 1017.59 1017.73 1017.84 1017.92 1017.98 1018.02 1018.06 1018.09 1018.14 1018.20 1018.28 1018.37 1018.45 1018.52 1018.55 1018.54 1018.47 1018.33 1018.15 1017.91 1017.64 1017.36 1017.08 1016.81 1016.57 1016.35 1016.16 1015.99 1015.83 1015.66 1015.48
1010.59 1011.68 1012.77 1013.80 1014.73 1015.53 1016.19 1016.72 1017.14 1017.45 1017.70 1017.88 1018.01 1018.11 1018.18 1018.22 1018.24 1018.26 1018.28 1018.31 1018.37 1018.47 1018.58 1018.71 1018.84 1018.94 1019.00 1019.00 1018.93 1018.77 1018.55 1018.25 1017.91 1017.54 1017.16 1016.80 1016.47 1016.17 1015.92 1015.70 1015.51 1015.33 1015.14
1011.99 1012.93 1013.85 1014.72 1015.50 1016.18 1016.76 1017.24 1017.61 1017.91 1018.13 1018.29 1018.39 1018.46 1018.49 1018.49 1018.49 1018.49 1018.51 1018.56 1018.64 1018.77 1018.92 1019.09 1019.25 1019.38 1019.46 1019.46 1019.38 1019.19 1018.92 1018.56 1018.13 1017.67 1017.20 1016.74 1016.31 1015.93 1015.60 1015.33 1015.09 1014.87 1014.66
1013.43 1014.22 1014.98 1015.68 1016.32 1016.88 1017.35 1017.75 1018.07 1018.32 1018.51 1018.64 1018.71 1018.75 1018.75 1018.74 1018.72 1018.72 1018.75 1018.82 1018.93 1019.08 1019.26 1019.45 1019.63 1019.77 1019.84 1019.83 1019.71 1019.48 1019.15 1018.72 1018.22 1017.67 1017.11 1016.56 1016.04 1015.57 1015.17 1014.83 1014.53 1014.27 1014.02
1014.80 1015.47 1016.08 1016.63 1017.12 1017.55 1017.92 1018.23 1018.48 1018.67 1018.81 1018.91 1018.96 1018.98 1018.97 1018.96 1018.95 1018.96 1019.01 1019.10 1019.23 1019.39 1019.58 1019.77 1019.93 1020.04 1020.08 1020.02 1019.85 1019.57 1019.17 1018.67 1018.10 1017.48 1016.84 1016.22 1015.63 1015.09 1014.62 1014.22 1013.88 1013.57 1013.29
1016.04 1016.59 1017.06 1017.47 1017.83 1018.13 1018.40 1018.61 1018.79 1018.92 1019.03 1019.09 1019.13 1019.15 1019.15 1019.16 1019.18 1019.22 1019.29 1019.40 1019.54 1019.71 1019.88 1020.03 1020.15 1020.21 1020.18 1020.05 1019.81 1019.46 1019.00 1018.44 1017.81 1017.14 1016.45 1015.77 1015.13 1014.54 1014.03 1013.58 1013.20 1012.86 1012.56
1017.05 1017.50 1017.86 1018.15 1018.39 1018.59 1018.74 1018.88 1018.99 1019.07 1019.14 1019.20 1019.24 1019.27 1019.31 1019.36 1019.42 1019.51 1019.62 1019.75 1019.90 1020.04 1020.18 1020.28 1020.33 1020.30 1020.19 1019.98 1019.66 1019.24 1018.72 1018.11 1017.44 1016.73 1016.01 1015.31 1014.64 1014.02 1013.48 1013.01 1012.60 1012.25 1011.94
1017.79 1018.16 1018.43 1018.62 1018.77 1018.87 1018.95 1019.02 1019.07 1019.12 1019.18 1019.24 1019.30 1019.38 1019.47 1019.58 1019.70 1019.84 1019.99 1020.15 1020.29 1020.42 1020.50 1020.54 1020.50 1020.39 1020.18 1019.88 1019.49 1019.00 1018.43 1017.79 1017.10 1016.38 1015.65 1014.94 1014.26 1013.64 1013.09 1012.60 1012.19 1011.84 1011.54
1018.25 1018.54 1018.75 1018.88 1018.96 1019.00 1019.03 1019.05 1019.07 1019.11 1019.16 1019.24 1019.34 1019.47 1019.63 1019.80 1020.00 1020.20 1020.40 1020.58 1020.72 1020.83 1020.87 1020.83 1020.72 1020.51 1020.22 1019.84 1019.38 1018.84 1018.24 1017.58 1016.88 1016.17 1015.45 1014.74 1014.08 1013.46 1012.91 1012.43 1012.02 1011.67 1011.38
1018.44 1018.69 1018.86 1018.95 1019.00 1019.01 1019.01 1019.01 1019.03 1019.06 1019.13 1019.24 1019.38 1019.57 1019.79 1020.03 1020.29 1020.55 1020.79 1021.00 1021.15 1021.24 1021.24 1021.16 1020.98 1020.71 1020.35 1019.91 1019.40 1018.83 1018.21 1017.55 1016.86 1016.16 1015.46 1014.77 1014.12 1013.51 1012.96 1012.48 1012.07 1011.72 1011.44
1018.44 1018.67 1018.81 1018.90 1018.94 1018.95 1018.95 1018.95 1018.98 1019.03 1019.12 1019.25 1019.43 1019.66 1019.93 1020.23 1020.54 1020.85 1021.13 1021.36 1021.52 1021.60 1021.58 1021.47 1021.25 1020.94 1020.55 1020.08 1019.55 1018.97 1018.35 1017.70 1017.03 1016.35 1015.67 1015.00 1014.36 1013.76 1013.21 1012.72 1012.29 1011.94 1011.65
1018.32 1018.54 1018.69 1018.79 1018.85 1018.88 1018.90 1018.93 1018.96 1019.03 1019.13 1019.28 1019.49 1019.74 1020.03 1020.36 1020.70 1021.03 1021.33 1021.58 1021.76 1021.84 1021.83 1021.70 1021.48 1021.16 1020.77 1020.30 1019.78 1019.21 1018.62 1017.99 1017.35 1016.70 1016.04 1015.39 1014.75 1014.14 1013.58 1013.07 1012.63 1012.25 1011.94
1018.17 1018.38 1018.55 1018.68 1018.78 1018.85 1018.91 1018.96 1019.01 1019.09 1019.20 1019.35 1019.54 1019.78 1020.07 1020.39 1020.72 1021.06 1021.36 1021.62 1021.81 1021.91 1021.91 1021.81 1021.60 1021.32 1020.95 1020.52 1020.03 1019.51 1018.95 1018.36 1017.76 1017.13 1016.50 1015.86 1015.23 1014.61 1014.03 1013.49 1013.01 1012.59 1012.23
Thickness
5826 5814 5803 5794 5785 5781 5777 5772 5765 5761 5755 5747 5739 5731 5725 5720 5714 5708 5702 5696 5692 5687 5683 5680 5674 5670 5665 5660 5657 5652 5647 5643 5641 5637 5636 5638 5637 5635 5633 5631 5629 5625 5621
5815 5804 5793 5785 5776 5770 5768 5765 5760 5754 5748 5741 5735 5728 5719 5712 5705 5697 5690 5685 5680 5675 5671 5666 5663 5658 5652 5649 5645 5639 5633 5629 5626 5619 5616 5616 5617 5618 5616 5611 5609 5606 5603
5806 5795 5787 5779 5770 5762 5760 5757 5752 5746 5740 5734 5727 5717 5709 5700 5692 5685 5679 5674 5669 5663 5658 5654 5649 5644 5639 5635 5630 5625 5620 5614 5610 5607 5602 5597 5596 5594 5595 5591 5588 5586 5583
5805 5790 5782 5772 5765 5757 5753 5749 5743 5736 5729 5724 5716 5707 5698 5690 5683 5676 5668 5663 5659 5654 5648 5643 5637 5631 5626 5622 5616 5609 5605 5601 5596 5593 5590 5585 5580 5574 5573 5571 5570 5569 5566
5803 5785 5775 5765 5757 5750 5743 5738 5731 5723 5717 5713 5705 5698 5689 5681 5673 5665 5657 5653 5648 5643 5638 5631 5625 5619 5614 5609 5603 5598 5592 5586 5581 5575 5570 5566 5562 5560 5555 5554 5553 5550 5548
5795 5778 5767 5756 5746 5738 5730 5723 5716 5709 5704 5699 5692 5686 5677 5669 5661 5653 5646 5642 5638 5634 5628 5621 5614 5608 5603 5596 5590 5585 5579 5574 5566 5558 5553 5548 5544 5540 5537 5536 5535 5534 5532
5780 5763 5751 5741 5729 5722 5715 5708 5701 5693 5689 5684 5678 5672 5665 5658 5651 5644 5638 5634 5630 5624 5616 5611 5602 5596 5590 5583 5578 5572 5566 5560 5554 5546 5540 5535 5530 5525 5521 5518 5516 5514 5513
5768 5752 5739 5727 5717 5708 5702 5695 5688 5680 5675 5670 5664 5659 5652 5648 5640 5633 5630 5624 5618 5611 5603 5596 5590 5583 5577 5571 5565 5559 5553 5549 5543 5536 5530 5524 5518 5513 5508 5502 5498 5498 5499
5751 5738 5725 5714 5704 5696 5689 5682 5675 5668 5662 5657 5651 5645 5640 5635 5628 5622 5617 5612 5603 5598 5591 5584 5577 5570 5564 5558 5551 5545 5540 5535 5530 5525 5520 5513 5508 5502 5495 5489 5482 5478 5480
5735 5722 5710 5700 5691 5683 5675 5668 5662 5656 5650 5645 5639 5633 5627 5621 5615 5611 5602 5596 5589 5581 5576 5570 5564 5558 5552 5546 5540 5534 5530 5525 5519 5513 5507 5501 5495 5488 5482 5475 5469 5464 5462
5723 5711 5699 5689 5679 5669 5661 5654 5648 5643 5637 5632 5627 5620 5614 5608 5603 5597 5590 5583 5575 5568 5563 5557 5552 5546 5541 5536 5530 5525 5519 5514 5508 5501 5495 5489 5481 5474 5468 5461 5456 5450 5446
5713 5700 5688 5676 5665 5656 5648 5641 5635 5630 5624 5619 5613 5606 5601 5595 5589 5582 5575 5569 5562 5556 5551 5545 5540 5534 5530 5524 5519 5513 5507 5501 5494 5487 5480 5474 5467 5460 5453 5446 5441 5436 5431
5695 5685 5673 5662 5652 5643 5635 5628 5622 5616 5611 5604 5597 5590 5584 5578 5572 5566 5560 5555 5549 5542 5537 5531 5526 5521 5516 5510 5503 5496 5489 5482 5475 5469 5463 5458 5451 5444 5437 5430 5425 5421 5419
5678 5669 5658 5647 5637 5628 5620 5613 5605 5599 5593 5587 5579 5572 5566 5560 5554 5550 5544 5539 5534 5528 5522 5517 5511 5506 5499 5490 5482 5476 5470 5464 5458 5452 5447 5441 5435 5429 5423 5418 5414 5411 5410
5660 5652 5642 5630 5620 5612 5604 5596 5588 5581 5574 5568 5561 5554 5549 5544 5539 5534 5529 5524 5517 5510 5504 5500 5495 5489 5483 5471 5463 5458 5454 5448 5443 5438 5433 5427 5422 5417 5412 5409 5407 5404 5403
5643 5634 5624 5613 5604 5596 5588 5579 5570 5563 5556 5551 5546 5540 5535 5530 5524 5518 5513 5507 5501 5494 5488 5484 5479 5473 5465 5454 5447 5442 5437 5433 5429 5425 5420 5415 5412 5410 5407 5404 5402 5399 5398
5626 5615 5605 5594 5585 5577 5570 5562 5554 5548 5543 5539 5534 5530 5524 5517 5511 5505 5498 5492 5485 5479 5474 5469 5464 5458 5450 5441 5434 5429 5425 5422 5418 5413 5409 5407 5406 5402 5401 5399 5397 5396 5396
5605 5593 5583 5574 5566 5560 5553 5546 5540 5535 5532 5528 5524 5518 5512 5505 5498 5491 5484 5478 5471 5465 5461 5457 5451 5445 5439 5430 5424 5418 5415 5412 5408 5404 5402 5400 5399 5397 5394 5394 5394 5395 5397
5582 5571 5563 5556 5549 5543 5537 5532 5528 5526 5523 5517 5511 5505 5499 5492 5485 5477 5469 5464 5459 5454 5448 5444 5438 5433 5428 5420 5414 5407 5406 5405 5401 5398 5397 5395 5394 5393 5390 5391 5394 5397 5401
5560 5552 5545 5539 5533 5528 5524 5521 5519 5515 5510 5505 5498 5491 5484 5477 5470 5463 5457 5452 5447 5442 5436 5431 5427 5422 5417 5410 5403 5398 5398 5397 5396 5395 5395 5394 5392 5391 5391 5393 5396 5401 5405
5541 5535 5530 5525 5520 5517 5515 5512 5508 5503 5498 5492 5485 5477 5471 5466 5459 5452 5446 5441 5435 5430 5425 5420 5416 5412 5406 5400 5394 5391 5390 5390 5391 5393 5394 5393 5392 5393 5395 5398 5401 5405 5408
5525 5520 5516 5513 5511 5509 5506 5501 5496 5491 5486 5480 5473 5466 5460 5454 5448 5442 5435 5428 5423 5418 5413 5408 5404 5400 5395 5391 5387 5385 5385 5385 5388 5390 5391 5392 5393 5397 5400 5404 5408 5411 5413
5513 5511 5510 5507 5504 5500 5496 5491 5486 5481 5476 5470 5464 5457 5451 5443 5436 5429 5423 5416 5411 5405 5400 5395 5391 5388 5386 5383 5381 5382 5383 5384 5386 5388 5390 5393 5396 5399 5404 5407 5410 5414 5416
5507 5507 5505 5502 5498 5493 5488 5484 5479 5473 5467 5461 5456 5450 5442 5433 5424 5418 5411 5405 5399 5394 5388 5384 5380 5378 5377 5376 5376 5377 5380 5383 5385 5388 5391 5395 5398 5401 5405 5408 5411 5414 5416
5506 5504 5500 5496 5491 5485 5480 5475 5470 5464 5459 5453 5448 5441 5433 5425 5415 5407 5399 5393 5386 5380 5377 5375 5373 5372 5371 5370 5371 5373 5377 5380 5383 5387 5392 5396 5400 5404 5407 5409 5412 5414 5417
5502 5498 5494 5489 5483 5477 5472 5467 5461 5456 5451 5446 5439 5432 5423 5415 5408 5400 5392 5384 5380 5375 5371 5368 5366 5368 5367 5368 5371 5374 5377 5380 5384 5388 5392 5396 5400 5404 5407 5409 5411 5414 5416